Zurück zum Katalog

STARLINK-11254

AktivKommunikationVLEO
NORAD 60731·PAYLOAD·🇺🇸 United States

Gestartet Aug 28, 2024 von Cape Canaveral Space Force Station

Loading…

Nächste Überflüge (nächste 24 Stunden)

TLE

AktuellSource: CelesTrak SupGP

Epoche: Sep 15, 2026, 03:43 UTC

1 60731C 24152M   26258.15534722 -.00024844  00000+0 -20440-3 0  2587
2 60731  53.1573 261.9490 0001149  94.6111  26.0879 15.69750329    11

Verfolge STARLINK-11254 in Echtzeit mit AllMySat

Download on the App Store